This demonstration page uses our WeatherBlox Daily Observations layout. Learn more.

Left ArrowRight Arrow

47.50024, -111.30081

Hourly Observations for May 31, 2015

Temp ( °F °C ) Dew Point ( °F °C ) Humidity (%) Winds ( mph kmh ) Pressure ( in mb ) Visibility ( mi km ) Precip ( " mm )
12:53 am 00:53 Clear 50 10 48 8.9 93 93 S 3 6 29.96 1015 10 16 0.00 0.00
1:53 am 01:53 Clear 51 10.6 48 8.9 89 89 S 3 6 29.95 1014 10 16 0.00 0.00
2:53 am 02:53 Clear 50 10 46 7.8 86 86 S 9 15 29.93 1014 10 16 0.00 0.00
3:53 am 03:53 Clear 50 10 46 7.8 86 86 S 10 17 29.91 1013 10 16 0.00 0.00
4:53 am 04:53 Clear 49 9.4 44 6.7 83 83 SSW 8 13 29.90 1013 10 16 0.00 0.00
5:53 am 05:53 Sunny 50 10 46 7.8 86 86 SSW 10 17 29.90 1012 10 16 0.00 0.00
6:53 am 06:53 Sunny 55 12.8 47 8.3 74 74 SSW 10 17 29.91 1013 10 16 0.00 0.00
7:53 am 07:53 Sunny 60 15.6 48 8.9 65 65 SSW 13 20 29.91 1013 10 16 0.00 0.00
8:53 am 08:53 Sunny 63 17.2 50 10 63 63 SSW 16 26 29.90 1012 10 16 0.00 0.00
9:53 am 09:53 Sunny 69 20.6 51 10.6 53 53 SW 15 24 29.89 1012 10 16 0.00 0.00
10:53 am 10:53 Sunny 71 21.7 47 8.3 42 42 SW 15 24 29.89 1012 10 16 0.00 0.00
11:53 am 11:53 Sunny 74 23.3 49 9.4 41 41 SW 15 24 29.88 1012 10 16 0.00 0.00
12:53 pm 12:53 Mostly Sunny 75 23.9 49 9.4 40 40 SW 14 22 29.87 1012 10 16 0.00 0.00
1:53 pm 13:53 Sunny 76 24.4 48 8.9 37 37 WSW 7 11 29.85 1011 10 16 0.00 0.00
2:53 pm 14:53 Mostly Sunny 77 25 47 8.3 35 35 SSW 7 11 29.84 1011 10 16 0.00 0.00
3:53 pm 15:53 Mostly Sunny 78 25.6 47 8.3 33 33 undefined N/A 29.82 1010 10 16 0.00 0.00
4:53 pm 16:53 Sunny 80 26.7 43 6.1 27 27 W 12 19 29.79 1009 10 16 0.00 0.00
5:53 pm 17:53 Sunny 79 26.1 43 6.1 28 28 WSW 14 22 29.78 1009 10 16 0.00 0.00
6:53 pm 18:53 Sunny 75 23.9 52 11.1 45 45 W 6 9 29.78 1008 10 16 0.00 0.00
7:53 pm 19:53 Sunny 73 22.8 56 13.3 55 55 Calm 29.76 1008 10 16 0.00 0.00
8:53 pm 20:53 Sunny 71 21.7 49 9.4 46 46 Calm 29.78 1008 10 16 0.00 0.00
9:53 pm 21:53 Clear 69 20.6 51 10.6 53 53 S 3 6 29.77 1008 10 16 0.00 0.00
10:53 pm 22:53 Clear 67 19.4 49 9.4 53 53 SW 7 11 29.78 1008 10 16 0.00 0.00
11:53 pm 23:53 Clear 62 16.7 47 8.3 58 58 SSW 12 19 29.78 1008 10 16 0.00 0.00

Powered by AerisWeather